Year,Month,Day,Hour,Minute,Value (Times are PST for temperature in C)
2006,08,11,15,16,18.60
2006,08,11,15,17,18.60
2006,08,11,15,18,18.80
2006,08,11,15,19,18.90
2006,08,11,15,20,19.00
2006,08,11,15,21,19.10
2006,08,11,15,22,18.90
2006,08,11,15,23,18.80
2006,08,11,15,24,18.60
2006,08,11,15,25,18.50
2006,08,11,15,26,18.40
2006,08,11,15,27,18.20
2006,08,11,15,28,18.00
2006,08,11,15,29,17.90
2006,08,11,15,30,17.80
2006,08,11,15,31,17.70
2006,08,11,15,32,17.70
2006,08,11,15,33,17.70
2006,08,11,15,34,17.80
2006,08,11,15,35,18.10
2006,08,11,15,36,18.30
2006,08,11,15,37,18.40
2006,08,11,15,38,18.50
2006,08,11,15,39,18.60
2006,08,11,15,40,18.50
2006,08,11,15,41,18.50
2006,08,11,15,42,18.40
2006,08,11,15,43,18.50
2006,08,11,15,44,18.70
2006,08,11,15,45,19.00
2006,08,11,15,46,19.20
2006,08,11,15,47,19.40
2006,08,11,15,48,19.50
2006,08,11,15,49,19.50
2006,08,11,15,50,19.50
2006,08,11,15,51,19.60
2006,08,11,15,52,19.70
2006,08,11,15,53,19.90
2006,08,11,15,54,20.00
2006,08,11,15,55,20.10
2006,08,11,15,56,20.10
2006,08,11,15,57,20.00
2006,08,11,15,58,20.10
2006,08,11,15,59,20.20
2006,08,11,16,00,20.30
2006,08,11,16,01,20.20
2006,08,11,16,02,20.20
2006,08,11,16,03,20.30
2006,08,11,16,04,20.30
2006,08,11,16,05,20.20
2006,08,11,16,06,20.00
2006,08,11,16,07,19.90
2006,08,11,16,08,20.00
2006,08,11,16,09,20.10
2006,08,11,16,10,20.20
2006,08,11,16,11,20.30
2006,08,11,16,12,20.40
2006,08,11,16,13,20.50
2006,08,11,16,14,20.60
2006,08,11,16,15,20.50
2006,08,11,16,16,20.50
2006,08,11,16,17,20.50
2006,08,11,16,18,20.50
2006,08,11,16,19,20.50
2006,08,11,16,20,20.30
2006,08,11,16,21,20.20
2006,08,11,16,22,20.10
2006,08,11,16,23,20.00
2006,08,11,16,24,19.70
2006,08,11,16,25,19.50
2006,08,11,16,26,19.50
2006,08,11,16,27,19.60
2006,08,11,16,28,19.70
2006,08,11,16,29,19.90
2006,08,11,16,30,20.00
2006,08,11,16,31,20.10
2006,08,11,16,32,20.00
2006,08,11,16,33,19.90
2006,08,11,16,34,19.80
2006,08,11,16,35,19.70
2006,08,11,16,36,19.70
2006,08,11,16,37,19.80
2006,08,11,16,38,19.90
2006,08,11,16,39,19.90
2006,08,11,16,40,19.90
2006,08,11,16,41,19.80
2006,08,11,16,42,19.80
2006,08,11,16,43,19.70
2006,08,11,16,44,19.60
2006,08,11,16,45,19.60
2006,08,11,16,46,19.50
2006,08,11,16,47,19.50
2006,08,11,16,48,19.40
2006,08,11,16,49,19.40
2006,08,11,16,50,19.40
2006,08,11,16,51,19.40
2006,08,11,16,52,19.40
2006,08,11,16,53,19.30
2006,08,11,16,54,19.20
2006,08,11,16,55,19.10
2006,08,11,16,56,19.10
2006,08,11,16,57,18.90
2006,08,11,16,58,18.80
2006,08,11,16,59,18.80
2006,08,11,17,00,18.80
2006,08,11,17,01,18.80
2006,08,11,17,02,18.80
2006,08,11,17,03,18.80
2006,08,11,17,04,18.80
2006,08,11,17,05,18.80
2006,08,11,17,06,18.90
2006,08,11,17,07,18.90
2006,08,11,17,08,19.00
2006,08,11,17,09,19.10
2006,08,11,17,10,19.10
2006,08,11,17,11,19.10
2006,08,11,17,12,18.90
2006,08,11,17,13,18.90
2006,08,11,17,14,18.90
2006,08,11,17,15,18.80
2006,08,11,17,16,18.70
2006,08,11,17,17,18.70
2006,08,11,17,18,18.60
2006,08,11,17,19,18.70
2006,08,11,17,20,18.70
2006,08,11,17,21,18.80
2006,08,11,17,22,18.90
2006,08,11,17,23,19.00
2006,08,11,17,24,19.00
2006,08,11,17,25,18.90
2006,08,11,17,26,18.90
2006,08,11,17,27,18.90
2006,08,11,17,28,18.80
2006,08,11,17,29,18.90
2006,08,11,17,30,18.90
2006,08,11,17,31,18.90
2006,08,11,17,32,18.90
2006,08,11,17,33,18.80
2006,08,11,17,34,18.80
2006,08,11,17,35,18.80
2006,08,11,17,36,18.80
2006,08,11,17,37,18.80
2006,08,11,17,38,18.90
2006,08,11,17,39,18.90
2006,08,11,17,40,19.00
2006,08,11,17,41,19.10
2006,08,11,17,42,19.10
2006,08,11,17,43,19.10
2006,08,11,17,44,19.10
2006,08,11,17,45,19.10
2006,08,11,17,46,19.10
2006,08,11,17,47,19.10
2006,08,11,17,48,19.00
2006,08,11,17,49,18.90
2006,08,11,17,50,18.90
2006,08,11,17,51,18.90
2006,08,11,17,52,18.90
2006,08,11,17,53,18.80
2006,08,11,17,54,18.70
2006,08,11,17,55,18.60
2006,08,11,17,56,18.60
2006,08,11,17,57,18.70
2006,08,11,17,58,18.70
2006,08,11,17,59,18.70
2006,08,11,18,00,18.70
2006,08,11,18,01,18.70
2006,08,11,18,02,18.60
2006,08,11,18,03,18.60
2006,08,11,18,04,18.60
2006,08,11,18,05,18.50
2006,08,11,18,06,18.50
2006,08,11,18,07,18.50
2006,08,11,18,08,18.40
2006,08,11,18,09,18.50
2006,08,11,18,10,18.40
2006,08,11,18,11,18.30
2006,08,11,18,12,18.30
2006,08,11,18,13,18.20
2006,08,11,18,14,18.10
2006,08,11,18,15,18.10
2006,08,11,18,16,18.10
2006,08,11,18,17,18.10
2006,08,11,18,18,18.10
2006,08,11,18,19,18.20
2006,08,11,18,20,18.20
2006,08,11,18,21,18.20
2006,08,11,18,22,18.20
2006,08,11,18,23,18.30
2006,08,11,18,24,18.30
2006,08,11,18,25,18.20
2006,08,11,18,26,18.20
2006,08,11,18,27,18.20
2006,08,11,18,28,18.20
2006,08,11,18,29,18.20
2006,08,11,18,30,18.10
2006,08,11,18,31,18.10
2006,08,11,18,32,18.20
2006,08,11,18,33,18.20
2006,08,11,18,34,18.20
2006,08,11,18,35,18.10
2006,08,11,18,36,18.00
2006,08,11,18,37,18.00
2006,08,11,18,38,18.10
2006,08,11,18,39,18.10
2006,08,11,18,40,18.10
2006,08,11,18,41,17.90
2006,08,11,18,42,17.90
2006,08,11,18,43,17.90
2006,08,11,18,44,17.90
2006,08,11,18,45,17.90
2006,08,11,18,46,17.90
2006,08,11,18,47,17.90
2006,08,11,18,48,17.90
2006,08,11,18,49,18.00
2006,08,11,18,50,18.10
2006,08,11,18,51,18.20
2006,08,11,18,52,18.20
2006,08,11,18,53,18.20
2006,08,11,18,54,18.30
2006,08,11,18,55,18.30
2006,08,11,18,56,18.40
2006,08,11,18,57,18.40
2006,08,11,18,58,18.40
2006,08,11,18,59,18.40
2006,08,11,19,00,18.40
2006,08,11,19,01,18.30
2006,08,11,19,02,18.30
2006,08,11,19,03,18.30
2006,08,11,19,04,18.20
2006,08,11,19,05,18.20
2006,08,11,19,06,18.20
2006,08,11,19,07,18.10
2006,08,11,19,08,18.00
2006,08,11,19,09,17.90
2006,08,11,19,10,17.90
2006,08,11,19,11,17.90
2006,08,11,19,12,17.90
2006,08,11,19,13,17.90
2006,08,11,19,14,17.90
2006,08,11,19,15,17.90
2006,08,11,19,16,17.90
2006,08,11,19,17,17.90
2006,08,11,19,18,17.90
2006,08,11,19,19,17.90
2006,08,11,19,20,17.90
2006,08,11,19,21,17.90
2006,08,11,19,22,17.90
2006,08,11,19,23,17.80
2006,08,11,19,24,17.80
2006,08,11,19,25,17.80
2006,08,11,19,26,17.80
2006,08,11,19,27,17.80
2006,08,11,19,28,17.80
2006,08,11,19,29,17.70
2006,08,11,19,30,17.70
2006,08,11,19,31,17.60
2006,08,11,19,32,17.50
2006,08,11,19,33,17.50
2006,08,11,19,34,17.40
2006,08,11,19,35,17.40
2006,08,11,19,36,17.30
2006,08,11,19,37,17.30
2006,08,11,19,38,17.30
2006,08,11,19,39,17.20
2006,08,11,19,40,17.20
2006,08,11,19,41,17.10
2006,08,11,19,42,17.10
2006,08,11,19,43,17.10
2006,08,11,19,44,17.00
2006,08,11,19,45,17.00
2006,08,11,19,46,17.00
2006,08,11,19,47,17.00
2006,08,11,19,48,16.90
2006,08,11,19,49,16.80
2006,08,11,19,50,16.80
2006,08,11,19,51,16.80
2006,08,11,19,52,16.70
2006,08,11,19,53,16.70
2006,08,11,19,54,16.70
2006,08,11,19,55,16.70
2006,08,11,19,56,16.70
2006,08,11,19,57,16.70
2006,08,11,19,58,16.60
2006,08,11,19,59,16.60
2006,08,11,20,00,16.60
2006,08,11,20,01,16.60
2006,08,11,20,02,16.50
2006,08,11,20,03,16.40
2006,08,11,20,04,16.40
2006,08,11,20,05,16.40
2006,08,11,20,06,16.40
2006,08,11,20,07,16.40
2006,08,11,20,08,16.40
2006,08,11,20,09,16.40
2006,08,11,20,10,16.40
2006,08,11,20,11,16.30
2006,08,11,20,12,16.30
2006,08,11,20,13,16.30
2006,08,11,20,14,16.30
2006,08,11,20,15,16.20
2006,08,11,20,16,16.20
2006,08,11,20,17,16.20
2006,08,11,20,18,16.10
2006,08,11,20,19,16.10
2006,08,11,20,20,16.10
2006,08,11,20,21,16.10
2006,08,11,20,22,16.10
2006,08,11,20,23,16.10
2006,08,11,20,24,15.90
2006,08,11,20,25,15.90
2006,08,11,20,26,15.90
2006,08,11,20,27,15.90
2006,08,11,20,28,15.80
2006,08,11,20,29,15.80
2006,08,11,20,30,15.80
2006,08,11,20,31,15.80
2006,08,11,20,32,15.80
2006,08,11,20,33,15.80
2006,08,11,20,34,15.70
2006,08,11,20,35,15.70
2006,08,11,20,36,15.70
2006,08,11,20,37,15.60
2006,08,11,20,38,15.60
2006,08,11,20,39,15.60
2006,08,11,20,40,15.60
2006,08,11,20,41,15.60
2006,08,11,20,42,15.50
2006,08,11,20,43,15.50
2006,08,11,20,44,15.50
2006,08,11,20,45,15.50
2006,08,11,20,46,15.50
2006,08,11,20,47,15.50
2006,08,11,20,48,15.40
2006,08,11,20,49,15.40
2006,08,11,20,50,15.30
2006,08,11,20,51,15.30
2006,08,11,20,52,15.30
2006,08,11,20,53,15.30
2006,08,11,20,54,15.20
2006,08,11,20,55,15.20
2006,08,11,20,56,15.20
2006,08,11,20,57,15.10
2006,08,11,20,58,15.10
2006,08,11,20,59,15.10
2006,08,11,21,00,15.00
2006,08,11,21,01,15.00
2006,08,11,21,02,14.90
2006,08,11,21,03,14.90
2006,08,11,21,04,14.90
2006,08,11,21,05,14.90
2006,08,11,21,06,14.80
2006,08,11,21,07,14.80
2006,08,11,21,08,14.80
2006,08,11,21,09,14.80
2006,08,11,21,10,14.80
2006,08,11,21,11,14.80
2006,08,11,21,12,14.80
2006,08,11,21,13,14.80
2006,08,11,21,14,14.80
2006,08,11,21,15,14.80
2006,08,11,21,16,14.70
2006,08,11,21,17,14.70
2006,08,11,21,18,14.70
2006,08,11,21,19,14.70
2006,08,11,21,20,14.70
2006,08,11,21,21,14.70
2006,08,11,21,22,14.60
2006,08,11,21,23,14.60
2006,08,11,21,24,14.60
2006,08,11,21,25,14.60
2006,08,11,21,26,14.60
2006,08,11,21,27,14.60
2006,08,11,21,28,14.50
2006,08,11,21,29,14.50
2006,08,11,21,30,14.50
2006,08,11,21,31,14.50
2006,08,11,21,32,14.50
2006,08,11,21,33,14.50
2006,08,11,21,34,14.40
2006,08,11,21,35,14.40
2006,08,11,21,36,14.40
2006,08,11,21,37,14.40
2006,08,11,21,38,14.40
2006,08,11,21,39,14.40
2006,08,11,21,40,14.30
2006,08,11,21,41,14.30
2006,08,11,21,42,14.30
2006,08,11,21,43,14.30
2006,08,11,21,44,14.30
2006,08,11,21,45,14.30
2006,08,11,21,46,14.30
2006,08,11,21,47,14.30
2006,08,11,21,48,14.30
2006,08,11,21,49,14.30
2006,08,11,21,50,14.20
2006,08,11,21,51,14.20
2006,08,11,21,52,14.20
2006,08,11,21,53,14.20
2006,08,11,21,54,14.20
2006,08,11,21,55,14.10
2006,08,11,21,56,14.10
2006,08,11,21,57,14.10
2006,08,11,21,58,14.00
2006,08,11,21,59,14.00
2006,08,11,22,00,14.00
2006,08,11,22,01,14.00
2006,08,11,22,02,13.90
2006,08,11,22,03,13.90
2006,08,11,22,04,13.90
2006,08,11,22,05,13.90
2006,08,11,22,06,13.80
2006,08,11,22,07,13.80
2006,08,11,22,08,13.80
2006,08,11,22,09,13.80
2006,08,11,22,10,13.80
2006,08,11,22,11,13.80
2006,08,11,22,12,13.80
2006,08,11,22,13,13.80
2006,08,11,22,14,13.80
2006,08,11,22,15,13.80
2006,08,11,22,16,13.80
2006,08,11,22,17,13.80
2006,08,11,22,18,13.80
2006,08,11,22,19,13.70
2006,08,11,22,20,13.70
2006,08,11,22,21,13.70
2006,08,11,22,22,13.70
2006,08,11,22,23,13.70
2006,08,11,22,24,13.70
2006,08,11,22,25,13.70
2006,08,11,22,26,13.60
2006,08,11,22,27,13.60
2006,08,11,22,28,13.60
2006,08,11,22,29,13.60
2006,08,11,22,30,13.60
2006,08,11,22,31,13.60
2006,08,11,22,32,13.50
2006,08,11,22,33,13.50
2006,08,11,22,34,13.50
2006,08,11,22,35,13.50
2006,08,11,22,36,13.50
2006,08,11,22,37,13.50
2006,08,11,22,38,13.40
2006,08,11,22,39,13.40
2006,08,11,22,40,13.50
2006,08,11,22,41,13.50
2006,08,11,22,42,13.50
2006,08,11,22,43,13.50
2006,08,11,22,44,13.60
2006,08,11,22,45,13.60
2006,08,11,22,46,13.60
2006,08,11,22,47,13.60
2006,08,11,22,48,13.70
2006,08,11,22,49,13.60
2006,08,11,22,50,13.60
2006,08,11,22,51,13.60
2006,08,11,22,52,13.60
2006,08,11,22,53,13.60
2006,08,11,22,54,13.60
2006,08,11,22,55,13.50
2006,08,11,22,56,13.50
2006,08,11,22,57,13.50
2006,08,11,22,58,13.50
2006,08,11,22,59,13.50
2006,08,11,23,00,13.50
2006,08,11,23,01,13.40
2006,08,11,23,02,13.40
2006,08,11,23,03,13.40
2006,08,11,23,04,13.40
2006,08,11,23,05,13.40
2006,08,11,23,06,13.40
2006,08,11,23,07,13.40
2006,08,11,23,08,13.40
2006,08,11,23,09,13.40
2006,08,11,23,10,13.40
2006,08,11,23,11,13.40
2006,08,11,23,12,13.40
2006,08,11,23,13,13.30
2006,08,11,23,14,13.30
2006,08,11,23,15,13.30
2006,08,11,23,16,13.30
2006,08,11,23,17,13.30
2006,08,11,23,18,13.30
2006,08,11,23,19,13.30
2006,08,11,23,20,13.30
2006,08,11,23,21,13.30
2006,08,11,23,22,13.30
2006,08,11,23,23,13.20
2006,08,11,23,24,13.20
2006,08,11,23,25,13.10
2006,08,11,23,26,13.10
2006,08,11,23,27,13.10
2006,08,11,23,28,13.00
2006,08,11,23,29,13.00
2006,08,11,23,30,12.90
2006,08,11,23,31,12.90
2006,08,11,23,32,12.80
2006,08,11,23,33,12.80
2006,08,11,23,34,12.80
2006,08,11,23,35,12.80
2006,08,11,23,36,12.80
2006,08,11,23,37,12.80
2006,08,11,23,38,12.70
2006,08,11,23,39,12.70
2006,08,11,23,40,12.70
2006,08,11,23,41,12.60
2006,08,11,23,42,12.60
2006,08,11,23,43,12.60
2006,08,11,23,44,12.50
2006,08,11,23,45,12.50
2006,08,11,23,46,12.50
2006,08,11,23,47,12.40
2006,08,11,23,48,12.40
2006,08,11,23,49,12.30
2006,08,11,23,50,12.30
2006,08,11,23,51,12.30
2006,08,11,23,52,12.30
2006,08,11,23,53,12.30
2006,08,11,23,54,12.20
2006,08,11,23,55,12.20
2006,08,11,23,56,12.10
2006,08,11,23,57,12.10
2006,08,11,23,58,12.10
2006,08,11,23,59,12.00
